SCP
0 0 0 0 0 0 0 0 0 0 0 0 0 0 0 0 0 0 1 1 1 2 2 2 2 2 2 3 3 2 2 2 2 1 1 1 1 1 1 1 1 1 1 0
0 0 0 0 0 0 0 0 0 0 0 0 0 0 0 0 0 0 1 1 1 2 2 2 2 2 2 3 3 2 2 2 2 2 1 1 1 1 1 1 1 1 1 0
0 0 -0 -0 0 0 0 0 0 0 0 0 0 0 0 0 0 0 0 1 1 2 2 2 2 2 2 3 3 2 2 2 2 2 1 1 1 1 1 1 1 1 1 1
0 -0 0 -0 0 0 0 0 0 0 0 0 0 0 0 0 0 0 0 1 1 1 2 3 3 3 2 2 2 2 2 2 2 2 2 1 1 1 1 1 1 1 1 1
0 0 0 0 0 0 0 0 0 0 0 0 0 0 0 0 0 0 0 0 1 1 2 3 3 3 2 2 2 2 2 2 2 2 2 1 1 1 1 1 1 1 1 1
0 0 0 0 0 0 0 0 0 0 0 0 0 0 0 0 0 0 0 0 1 1 2 3 3 3 2 2 2 2 2 2 2 2 1 1 1 1 1 1 1 1 1 1
0 0 0 0 0 0 0 0 0 0 0 0 0 0 0 0 0 0 0 0 1 1 2 3 3 3 2 2 2 2 2 2 2 2 1 1 1 1 1 1 1 1 1 1
0 0 0 0 0 0 0 0 0 0 0 0 0 0 0 0 0 0 0 0 1 1 2 2 3 3 2 2 2 2 2 2 2 2 1 1 1 1 1 1 1 1 1 1
0 0 0 0 0 0 0 0 0 0 0 0 0 0 0 0 0 0 0 0 1 1 1 2 2 2 2 2 2 2 2 2 2 2 1 1 1 1 1 1 1 1 1 1
0 0 0 0 0 0 0 0 0 0 0 0 0 0 0 0 0 0 0 0 1 1 1 2 2 2 2 2 2 2 2 2 2 2 1 1 1 1 1 1 1 1 1 1
0 0 0 0 0 0 0 0 0 0 0 0 0 0 0 0 0 0 0 1 1 1 1 1 2 2 2 2 2 2 2 2 2 2 1 1 1 1 1 1 1 1 1 1
0 0 0 0 0 0 0 0 0 0 0 0 0 0 0 0 0 0 0 1 1 1 1 1 2 2 2 2 2 2 2 2 2 2 1 1 1 1 1 1 2 1 1 1
0 0 0 0 0 0 0 0 0 0 0 0 0 0 0 0 0 0 0 1 1 1 1 1 2 2 2 2 2 2 2 2 2 1 1 1 1 1 1 1 2 1 1 1
0 0 0 0 0 0 0 0 0 0 0 0 0 0 0 0 0 0 0 1 1 1 1 1 2 2 2 2 2 2 2 2 2 1 1 1 1 2 2 2 2 1 1 1
0 0 0 0 0 0 0 0 0 0 0 0 0 0 0 0 0 0 0 1 1 1 1 2 2 2 2 2 2 2 2 2 2 1 1 1 2 2 2 1 1 1 1 1
0 0 0 0 0 0 0 0 0 0 0 0 0 0 0 0 0 0 1 1 1 1 1 2 2 2 2 2 2 2 2 2 2 2 2 2 2 1 1 1 1 1 1 1
0 0 0 0 0 0 0 0 0 0 0 0 0 0 0 0 0 1 1 1 1 1 1 2 2 2 2 2 2 2 2 2 2 1 1 1 1 1 1 1 1 1 1 1
0 0 0 0 0 0 0 0 0 0 0 0 0 0 0 1 1 1 1 1 1 1 1 2 2 2 2 2 2 2 1 1 1 1 1 1 1 1 1 1 1 1 1 1
0 0 0 0 0 0 0 0 0 0 1 1 1 1 1 1 1 1 1 1 1 1 1 1 1 1 1 1 1 1 1 1 1 1 1 1 1 1 1 1 1 1 1 1
0 0 0 0 0 0 0 0 0 0 1 1 1 1 1 1 1 1 1 1 1 1 1 1 1 1 1 1 1 1 1 1 1 1 1 1 1 1 1 1 1 1 1 1
0 0 0 0 0 0 0 0 0 1 1 1 1 1 1 1 1 1 1 1 1 1 1 1 1 1 1 1 1 1 1 1 1 1 1 1 1 1 1 1 1 1 1 1
0 0 0 0 0 0 1 1 1 1 1 1 1 1 1 1 1 1 1 2 1 1 1 1 1 1 1 1 1 1 1 1 1 1 1 1 1 1 1 1 1 1 1 1
0 0 0 0 0 1 1 1 1 1 1 1 1 1 1 1 1 1 1 1 1 1 1 1 1 1 1 1 1 1 1 1 1 1 1 1 1 1 1 1 1 1 1 1
0 0 1 1 1 1 1 1 1 1 1 1 1 1 1 1 1 1 1 1 1 1 1 1 1 1 1 1 1 1 1 1 1 1 1 1 1 1 1 1 1 1 0 0
0 0 1 1 1 1 1 1 1 1 1 1 1 1 1 1 1 1 1 1 1 1 1 1 1 1 1 1 1 1 1 1 1 1 1 1 1 1 0 0 0 0 0 0
0 0 1 1 1 1 1 1 1 1 1 1 1 1 1 1 1 1 1 1 1 1 1 1 1 1 1 1 1 1 1 1 1 1 1 1 1 1 0 0 0 0 0 0
Wind_Speed
15 15 16 18 20 19 17 15 15 13 12 14 13 11 10 10 11 12 12 11 12 13 15 15 15 15 14 13 12 11 10 10 8 7 7 6 5 4 4 4 7 7 5 5
14 20 19 18 18 20 20 18 16 11 10 10 10 11 11 11 12 11 12 11 11 12 15 15 15 14 14 13 13 12 11 11 10 7 5 5 5 4 4 4 6 7 6 6
21 15 20 20 19 18 18 17 15 11 9 11 10 13 13 12 11 10 11 12 13 14 17 17 16 15 15 15 14 13 12 11 10 9 6 5 4 3 4 5 5 7 7 6
20 20 17 20 19 18 16 16 15 12 10 9 12 10 12 13 13 13 12 13 14 15 16 17 16 15 15 14 14 12 12 11 11 10 9 9 7 6 6 5 5 7 7 6
16 19 19 18 18 17 15 13 14 13 12 12 12 12 11 12 13 14 14 14 14 14 16 17 17 16 15 15 14 12 12 11 11 10 9 9 7 6 5 5 6 7 6 6
18 17 17 17 16 15 14 14 13 12 12 15 15 13 10 9 11 12 13 13 12 13 15 16 16 15 14 14 14 13 13 12 11 11 10 9 9 8 8 7 7 6 5 5
19 19 17 17 17 16 16 13 10 12 12 13 13 13 7 7 9 11 12 12 12 12 13 15 16 16 14 14 13 13 13 12 12 13 11 10 9 9 8 8 8 7 6 6
17 17 18 17 17 15 17 18 13 10 11 10 12 12 8 9 8 8 9 10 11 12 12 14 15 15 14 15 14 13 13 13 13 13 11 10 10 8 7 8 7 7 5 6
13 16 17 18 17 18 19 18 18 13 10 9 9 9 9 10 9 10 9 10 10 11 12 13 14 15 14 14 13 13 13 12 12 12 11 10 10 9 8 8 7 5 5 5
12 11 15 17 16 19 19 17 12 12 10 10 10 11 10 12 10 10 10 9 8 9 10 11 11 12 12 12 12 12 12 11 11 11 11 11 10 9 7 7 8 6 6 5
16 11 12 16 18 19 19 19 15 11 10 10 6 5 6 10 10 11 10 9 9 8 8 9 10 10 12 12 12 11 11 11 11 11 10 9 10 10 8 7 7 6 6 6
14 10 11 14 15 17 17 18 17 12 10 8 6 4 1 4 8 9 9 9 8 7 8 8 9 10 10 10 10 10 10 11 11 11 10 9 9 9 9 9 8 7 6 6
8 8 10 12 14 17 17 17 17 14 10 10 8 4 1 4 6 8 9 9 7 6 6 6 6 7 7 8 8 9 9 10 10 11 11 10 9 9 9 8 8 7 7 7
7 9 10 11 10 13 17 18 17 15 10 11 7 6 5 6 6 7 7 7 8 7 5 6 6 5 5 6 6 7 8 8 9 9 10 10 9 9 8 8 8 7 7 7
8 11 13 14 12 12 14 17 19 17 15 12 8 11 10 6 6 8 7 7 6 6 5 7 6 5 5 5 5 6 6 7 7 8 8 8 8 8 8 8 7 7 7 8
7 9 12 14 14 13 14 16 17 17 17 13 9 6 7 6 4 6 7 7 7 6 5 7 7 6 5 4 5 5 5 6 6 7 7 7 7 7 7 7 7 7 6 6
6 7 10 11 13 12 15 17 17 15 14 12 10 5 6 7 6 6 6 6 6 6 6 6 5 5 4 4 4 5 5 5 5 6 6 6 6 7 7 8 7 7 6 6
6 6 7 10 10 14 11 12 13 13 10 8 6 6 6 5 5 6 6 6 6 5 6 5 4 4 4 5 5 5 5 5 5 5 5 6 7 6 6 6 6 6 5 5
9 8 8 8 9 11 10 9 10 9 7 6 5 4 5 5 5 5 6 7 6 6 6 5 4 4 4 5 5 5 5 5 5 5 5 5 6 6 6 5 5 5 5 5
11 9 9 9 9 10 7 4 5 6 6 4 6 5 6 6 4 5 5 7 8 7 6 5 5 5 4 4 5 5 5 5 5 5 5 4 5 5 6 5 5 4 4 4
13 12 12 12 10 7 4 3 6 8 4 2 4 5 5 3 3 6 7 8 8 7 6 5 5 5 4 4 5 5 4 4 4 4 4 4 4 4 4 4 3 4 4 4
10 10 11 10 10 6 5 2 1 2 3 3 4 5 6 7 7 8 9 8 7 6 7 6 5 5 4 4 4 4 4 3 4 4 5 5 4 4 4 4 4 4 4 4
5 5 4 3 2 2 5 4 3 3 4 4 5 6 7 8 7 7 9 7 6 6 6 5 6 5 4 4 4 5 4 3 4 5 5 5 4 3 3 3 3 3 3 3
3 3 3 2 3 1 2 4 4 4 5 6 6 6 6 7 7 8 9 7 7 6 6 6 6 5 5 5 4 4 4 4 5 5 5 4 4 4 3 2 2 1 1 2
3 3 2 2 1 0 1 3 3 5 7 7 6 7 8 8 8 9 8 7 7 7 6 6 6 6 6 6 5 4 4 4 5 5 5 4 4 4 4 5 4 3 3 2
4 3 2 1 1 1 1 3 3 5 6 7 7 8 8 9 9 9 8 7 7 7 6 6 7 6 6 6 6 5 5 4 5 4 4 3 4 4 4 5 6 9 8 10
Wind_Direction
204 215 220 221 224 239 250 248 241 234 204 200 211 216 221 206 200 184 180 172 179 179 171 168 168 168 166 162 163 168 168 162 165 172 179 180 171 174 173 168 156 163 173 173
204 220 227 231 230 234 247 254 255 240 209 202 211 218 224 215 209 194 180 171 185 181 170 168 171 172 171 169 170 172 173 169 175 175 178 176 166 176 181 174 156 170 177 175
217 219 220 232 234 233 238 243 251 242 221 210 215 226 220 218 216 199 176 174 183 189 178 173 175 178 176 176 176 178 177 174 180 170 175 176 160 177 179 168 169 180 179 184
228 235 219 221 230 232 236 239 250 245 234 225 218 232 217 212 213 202 187 184 190 190 179 173 178 180 180 178 178 177 178 177 181 175 182 180 180 186 185 174 176 180 182 183
223 227 228 223 224 228 237 240 244 248 247 247 224 236 231 204 206 205 194 192 192 183 177 173 180 182 181 179 179 179 180 182 180 182 184 184 188 189 180 177 172 176 182 187
236 228 225 229 226 227 233 238 238 242 246 241 234 235 236 213 206 208 199 190 187 180 172 169 176 176 180 179 179 181 179 181 180 185 187 191 191 188 182 182 175 179 181 191
231 233 223 223 222 217 221 222 218 217 225 235 233 234 231 206 209 201 196 184 182 177 171 168 172 175 176 178 178 179 178 182 184 189 191 194 196 193 189 186 183 185 184 189
218 221 218 216 220 214 214 221 224 219 221 231 230 229 219 204 197 185 177 174 174 174 173 169 172 173 177 179 177 179 179 183 187 192 192 193 195 198 196 196 191 190 195 187
221 219 212 213 215 222 215 222 231 241 250 240 231 214 205 198 183 172 171 172 175 175 173 167 169 173 178 180 179 182 180 184 187 191 190 192 196 201 197 192 197 196 198 190
252 238 212 206 211 221 229 223 230 238 246 246 232 215 196 176 181 176 171 167 169 170 166 164 166 171 175 178 178 182 181 185 185 189 191 193 196 199 197 194 195 195 194 189
244 245 219 205 209 212 218 224 229 235 242 249 250 238 197 173 180 179 172 163 159 161 157 160 163 169 169 174 174 178 182 183 185 189 193 194 192 195 197 199 192 188 188 185
232 242 233 216 211 219 222 227 227 233 239 248 252 256 314 166 183 166 157 149 150 153 156 159 161 164 165 170 174 178 184 186 188 189 189 194 190 190 194 195 191 184 182 184
234 244 234 218 211 212 223 228 230 232 243 245 237 203 180 203 182 162 152 146 139 135 140 140 143 154 164 167 169 175 184 188 188 186 189 192 191 190 191 190 185 183 182 185
255 243 242 229 219 206 217 226 228 228 232 241 223 162 187 200 176 153 146 143 144 143 134 127 133 149 153 157 164 174 182 186 186 187 190 190 190 189 188 186 183 182 185 188
249 245 246 249 251 236 226 227 226 226 230 237 204 181 176 193 187 154 143 135 133 137 141 133 136 137 142 153 158 168 177 179 181 184 188 188 189 185 183 182 182 181 187 195
239 257 252 251 246 244 237 230 229 225 227 230 222 195 169 167 175 145 143 145 140 143 143 133 134 137 145 156 161 164 164 168 169 177 181 177 178 180 180 179 178 179 188 192
237 253 255 248 239 241 234 227 225 226 226 223 223 201 161 163 168 151 141 139 135 139 130 123 131 137 148 151 146 152 151 154 162 167 169 168 172 178 182 181 175 181 189 189
259 268 257 250 244 237 231 228 225 224 220 220 210 185 165 147 142 130 127 120 119 120 121 117 120 130 140 140 138 145 150 156 158 162 166 169 174 177 175 176 173 178 187 192
224 239 249 245 237 248 244 227 222 214 205 204 193 180 155 134 130 119 123 123 123 121 114 115 118 121 127 132 138 143 152 158 163 168 172 173 172 167 167 173 173 179 185 192
211 218 239 246 236 234 238 250 239 206 205 197 173 170 160 154 167 137 117 114 107 104 110 117 119 116 117 123 130 140 149 150 157 161 160 157 158 162 169 172 175 175 173 176
203 210 224 241 244 242 282 268 229 210 191 184 161 146 140 138 117 119 106 94 97 100 103 104 104 103 106 119 126 134 137 140 145 139 140 140 144 154 162 161 162 162 167 169
203 211 216 231 237 236 335 317 200 102 81 94 106 114 114 111 116 111 101 94 96 99 102 98 95 95 96 106 121 124 121 121 127 132 133 133 135 153 158 157 165 168 171 175
219 229 224 222 223 30 13 39 51 73 84 81 89 98 107 112 118 115 105 98 99 93 91 94 97 96 96 102 111 118 113 118 122 121 123 127 129 125 125 146 158 161 168 185
235 264 232 194 167 109 26 43 38 73 92 85 93 104 117 118 118 120 112 105 97 91 86 92 97 95 91 89 90 98 106 117 116 116 117 119 113 104 90 85 92 107 162 186
274 251 251 212 176 59 31 59 47 79 98 113 118 112 115 116 114 108 105 101 96 91 87 84 86 84 82 86 85 88 95 103 111 110 109 112 110 110 94 77 54 65 47 27
284 276 252 233 113 84 48 67 76 87 95 100 106 106 108 108 106 104 102 99 96 93 87 86 84 82 78 77 75 73 81 94 104 108 107 113 119 117 115 110 87 55 60 60